Location: Makanda
(37.6176°N, 89.2090°W)
Time: 15:40:22
(UTC+00:00)

Cosmos 1939 Rocket - Pass Details

Date: 23 September 2019
Orbit: 534 x 583 km, 97.4° (Epoch: 18 October)

Event Time Altitude Azimuth Distance (km) Brightness Sun altitude
Rises 00:55:40 0° 167° (SSE) 2,673 6.1 -13.0°
Reaches altitude 10° 00:57:46 10° 167° (SSE) 1,783 5.2 -13.4°
Maximum altitude 01:01:37 89° 86° (E) 540 2.7 -14.1°
Drops below altitude 10° 01:05:30 10° 349° (NNW) 1,795 5.7 -14.9°
Sets 01:07:37 0° 349° (N) 2,693 6.7 -15.3°
